Weather History for PHJR - January, 2014

Change the Weather History Date:

Thursday, January 2, 2014

  Actual Average (PHNL) Record (PHNL)
Temperature  
Mean Temperature 72 °F 74 °F  
Max Temperature 79 °F 80 °F 84 °F (1957)
Min Temperature 64 °F 67 °F 57 °F (1979)
Degree Days  
Heating Degree Days 0 0  
Month to date heating degree days 0  
Since 1 July heating degree days 0  
Cooling Degree Days 6 9  
Month to date cooling degree days 18  
Year to date cooling degree days 18  
Growing Degree Days 22 (Base 50)    
Moisture  
Dew Point 69 °F    
Average Humidity 89    
Maximum Humidity 100    
Minimum Humidity 72    
Precipitation  
Precipitation 0.84 in 0.10 in 4.14 in (1930)
Month to date precipitation 0.20  
Year to date precipitation 0.20  
Snow  
Snow 0.00 in - - ()
Month to date snowfall  
Since 1 July snowfall  
Snow Depth -    
Sea Level Pressure  
Sea Level Pressure 29.83 in    
Wind  
Wind Speed 9 mph (SW)    
Max Wind Speed 29 mph    
Max Gust Speed 40 mph    
Visibility 8 miles    
Events Rain    
T = Trace of Precipitation, MM = Missing Value Source: NWS Daily Summary

Daily Weather History Graph

Daily Weather History Graph

Search for Another Location

Airport or City:

Trip Planner

Search our weather history database for the weather conditions in past years. The results will help you decide how hot, cold, wet, or windy it might be!

Date:

Astronomy

Jan. 02, 2014 Rise Set
Actual Time 7:10 AM HST 6:02 PM HST
Civil Twilight 6:46 AM HST 6:26 PM HST
Nautical Twilight 6:18 AM HST 6:54 PM HST
Astronomical Twilight 5:51 AM HST 7:21 PM HST
Moon 8:15 AM HST (1/2) 7:55 PM HST (1/2)
Length of Visible Light 11h 40m
Length of Day
10h 52m
Waxing Crescent, 3% of the Moon is Illuminated
Jan 2
Waxing Crescent
Jan 7
First Quarter
Jan 15
Full
Jan 23
Last Quarter
Jan 30
New

Hourly Weather History & Observations

Time (HST) Temp. Dew Point Humidity Pressure Visibility Wind Dir Wind Speed Gust Speed Precip Events Conditions
12:53 AM 64.9 °F 64.0 °F 97% 29.93 in 10.0 mi Calm Calm - N/A   Partly Cloudy
1:53 AM 66.9 °F 64.9 °F 93% 29.91 in 10.0 mi Calm Calm - N/A   Mostly Cloudy
2:11 AM 66.2 °F 64.4 °F 94% 29.89 in 10.0 mi Calm Calm - 0.00 in Rain Light Rain
2:23 AM 66.2 °F 66.2 °F 100% 29.88 in 8.0 mi Calm Calm - 0.00 in   Mostly Cloudy
2:53 AM 66.9 °F 66.0 °F 97% 29.89 in 7.0 mi ENE 4.6 mph - 0.01 in   Mostly Cloudy
3:11 AM 66.2 °F 66.2 °F 100% 29.87 in 7.0 mi NNE 4.6 mph - N/A   Mostly Cloudy
3:53 AM 72.0 °F 70.0 °F 93% 29.87 in 10.0 mi South 8.1 mph - N/A   Scattered Clouds
4:53 AM 73.0 °F 69.1 °F 87% 29.87 in 10.0 mi SSW 9.2 mph - N/A   Clear
5:53 AM 73.0 °F 69.1 °F 87% 29.87 in 10.0 mi South 9.2 mph - N/A   Scattered Clouds
6:53 AM 73.9 °F 69.1 °F 85% 29.88 in 10.0 mi SSW 11.5 mph - N/A   Mostly Cloudy
7:16 AM 73.4 °F 69.8 °F 88% 29.86 in 10.0 mi SSW 11.5 mph - 0.00 in Rain Light Rain
7:53 AM 73.9 °F 70.0 °F 87% 29.89 in 10.0 mi SW 10.4 mph - 0.04 in   Mostly Cloudy
8:53 AM 75.9 °F 70.0 °F 82% 29.90 in 10.0 mi SSW 12.7 mph - N/A   Scattered Clouds
9:53 AM 75.9 °F 70.0 °F 82% 29.91 in 10.0 mi SSW 12.7 mph - N/A   Scattered Clouds
10:53 AM 79.0 °F 71.1 °F 77% 29.89 in 10.0 mi SSW 13.8 mph - N/A   Scattered Clouds
11:53 AM 78.1 °F 69.1 °F 74% 29.87 in 10.0 mi SSW 13.8 mph - N/A   Mostly Cloudy
12:53 PM 77.0 °F 72.0 °F 84% 29.84 in 8.0 mi SSW 15.0 mph 20.7 mph 0.00 in Rain Light Rain
1:53 PM 79.0 °F 70.0 °F 74% 29.81 in 10.0 mi SSW 15.0 mph - 0.00 in   Scattered Clouds
2:53 PM 79.0 °F 69.1 °F 72% 29.79 in 10.0 mi SSW 16.1 mph 23.0 mph N/A   Mostly Cloudy
3:53 PM 77.0 °F 69.1 °F 76% 29.77 in 10.0 mi SSW 12.7 mph 23.0 mph N/A   Mostly Cloudy
4:53 PM 77.0 °F 70.0 °F 79% 29.78 in 10.0 mi SSW 13.8 mph 21.9 mph N/A   Scattered Clouds
5:53 PM 75.9 °F 70.0 °F 82% 29.78 in 10.0 mi SSW 15.0 mph 21.9 mph N/A   Mostly Cloudy
6:53 PM 71.1 °F 69.1 °F 93% 29.80 in 8.0 mi SSW 12.7 mph 20.7 mph 0.01 in Rain Light Rain
7:53 PM 73.9 °F 70.0 °F 87% 29.80 in 10.0 mi SW 9.2 mph - 0.00 in   Mostly Cloudy
8:44 PM 71.6 °F 69.8 °F 94% 29.79 in 1.2 mi WSW 24.2 mph 40.3 mph 0.31 in Rain Heavy Rain
8:46 PM 71.6 °F 69.8 °F 94% 29.79 in 0.8 mi SW 17.3 mph 40.3 mph 0.41 in Rain Heavy Rain
8:53 PM 71.1 °F 69.1 °F 93% 29.81 in 1.2 mi WSW 11.5 mph - 0.41 in Rain Light Rain
8:55 PM 71.6 °F 69.8 °F 94% 29.79 in 3.0 mi WSW 11.5 mph - 0.00 in Rain Light Rain
9:03 PM 71.6 °F 69.8 °F 94% 29.78 in 10.0 mi SW 15.0 mph 20.7 mph 0.00 in   Overcast
9:24 PM 71.6 °F 69.8 °F 94% 29.80 in 2.5 mi West 21.9 mph 32.2 mph 0.11 in Rain Light Rain
9:27 PM 71.6 °F 69.8 °F 94% 29.80 in 4.0 mi West 28.8 mph 36.8 mph 0.11 in Rain Light Rain
9:37 PM 71.6 °F 69.8 °F 94% 29.81 in 10.0 mi West 24.2 mph 33.4 mph 0.11 in Rain Light Rain
9:53 PM 70.0 °F 66.9 °F 90% 29.83 in 10.0 mi West 17.3 mph - 0.12 in Rain Light Rain
10:18 PM 71.6 °F 69.8 °F 94% 29.81 in 10.0 mi West 20.7 mph 25.3 mph 0.01 in   Overcast
10:32 PM 69.8 °F 68.0 °F 94% 29.80 in 5.0 mi West 20.7 mph 32.2 mph 0.01 in Rain Rain
10:34 PM 69.8 °F 68.0 °F 94% 29.80 in 4.0 mi West 23.0 mph 32.2 mph 0.02 in Rain Rain
10:53 PM 70.0 °F 69.1 °F 97% 29.81 in 2.5 mi WSW 13.8 mph - 0.11 in Rain Heavy Rain
11:03 PM 69.8 °F 68.0 °F 94% 29.80 in 2.5 mi West 23.0 mph 33.4 mph 0.05 in Rain Heavy Rain
11:17 PM 69.8 °F 68.0 °F 94% 29.80 in 3.0 mi West 16.1 mph - 0.10 in Rain Rain
11:42 PM 69.8 °F 68.0 °F 94% 29.79 in 10.0 mi WSW 10.4 mph - 0.14 in Rain Light Rain
11:53 PM 70.0 °F 69.1 °F 97% 29.80 in 10.0 mi WSW 11.5 mph - 0.14 in   Overcast